Location: American Medical Response San Jacinto
(33.7953°N, 116.9734°W)
Time: 07:21:47
(UTC+00:00)

Daily predictions for brighter satellites

Satellite Brightness Start Highest point End
(mag) Time Altitude Azimuth Time Altitude Azimuth Time Altitude Azimuth
NOSS 2-2 (D) 4.1 12:03:50 10° S 12:07:19 43° ESE 12:10:46 10° NE
NOSS 2-2 (E) 3.4 12:04:46 12° SSW 12:08:04 64° ESE 12:11:40 10° NE
H-2A R/B 2.6 12:04:43 10° SSW 12:08:27 33° W 12:12:10 10° NW
Cosmos 1125 Rocket 3.9 12:05:02 15° SW 12:09:07 46° WNW 12:14:10 10° N
FALCON 9 DEB 3.0 12:09:19 10° NW 12:12:47 76° SW 12:16:12 10° SE
USA 267 3.3 12:07:25 10° SE 12:13:58 88° SW 12:20:33 10° NW
Meteor 1-31 Rocket 3.5 12:15:45 10° NNE 12:19:32 55° E 12:23:16 10° S
Cosmos 1825 Rocket 3.9 12:16:51 10° NNW 12:20:55 41° W 12:24:57 10° SSW
Cosmos 2263 Rocket 4.0 12:18:32 10° W 12:21:30 14° NW 12:24:30 10° NNW
ASTRO F (AKARI) 4.3 12:19:13 10° NNE 12:22:18 75° E 12:25:22 10° S
Cosmos 1484 Rocket 3.0 12:20:00 10° NNE 12:23:41 69° E 12:27:23 10° S
Atlas Centaur 2 3.3 12:19:08 12° WSW 12:26:11 57° SSE 12:34:28 10° E
Cosmos 1953 Rocket 3.7 12:23:34 10° NNW 12:27:57 56° W 12:32:19 10° S
Cosmos 494 Rocket 4.1 12:23:26 10° NNW 12:28:37 86° ENE 12:33:48 10° SSE
Delta 2 Rocket 3.3 12:25:36 10° W 12:29:19 71° N 12:33:32 10° ENE
Cosmos 1709 Rocket 4.1 12:25:31 10° N 12:31:42 84° E 12:37:49 10° S
Hubble Space Telescope 2.6 12:31:03 10° SSW 12:34:11 21° SSE 12:37:19 10° ESE
CZ-4B R/B 1.5 12:32:45 10° S 12:35:59 49° W 12:39:09 10° NNW
Cosmos 2315 Rocket 4.0 12:30:51 10° SSW 12:37:07 74° W 12:43:28 10° N
ERS-2 3.8 12:36:14 10° SW 12:38:24 15° W 12:40:35 10° WNW
SeaSat 1 4.1 12:35:25 10° N 12:38:48 19° NW 12:42:12 10° W
